Challis, ID

8:17 PM MDT on September 29, 2016 (GMT -0600)
Challis

Weather History for KLLJ - August, 2014

Change the Weather History Date:

Sunday, August 24, 2014

  Actual Average Record
Temperature  
Mean Temperature 54 °F 64 °F  
Max Temperature 67 °F 82 °F 99 °F (1969)
Min Temperature 41 °F 45 °F 31 °F (1992)
Degree Days  
Heating Degree Days 11 3  
Month to date heating degree days 46 27  
Since 1 June heating degree days 213 213  
Since 1 July heating degree days 47 48  
Cooling Degree Days 0 1  
Month to date cooling degree days 66 78  
Year to date cooling degree days 301 234  
Since 1 June cooling degree days 301 232  
Growing Degree Days 4 (Base 50)    
Moisture  
Dew Point 43 °F    
Average Humidity 69    
Maximum Humidity 93    
Minimum Humidity 44    
Precipitation  
Precipitation 0.01 in 0.02 in 0.30 in (1995)
Month to date precipitation 1.59 0.60  
Year to date precipitation 4.71 7.20  
Sea Level Pressure  
Sea Level Pressure 29.99 in    
Wind  
Wind Speed 5 mph (NNW)    
Max Wind Speed 18 mph    
Max Gust Speed 26 mph    
Visibility 10 miles    
Events Rain    
T = Trace of Precipitation, MM = Missing Value Source: NWS Daily Summary

Daily Weather History Graph

Daily Weather History Graph

Search for Another Location

Airport or City:

Trip Planner

Search our weather history database for the weather conditions in past years. The results will help you decide how hot, cold, wet, or windy it might be!

Date:

Astronomy

Aug. 24, 2014 Rise Set
Actual Time 6:50 AM MDT 8:27 PM MDT
Civil Twilight 6:19 AM MDT 8:57 PM MDT
Nautical Twilight 5:42 AM MDT 9:35 PM MDT
Astronomical Twilight 5:02 AM MDT 10:14 PM MDT
Moon 6:04 AM MDT (8/24) 7:46 PM MDT (8/24)
Length of Visible Light 14h 38m
Length of Day
13h 37m
Waning Crescent, 1% of the Moon is Illuminated
Aug 24
Waning Crescent
Aug 25
New
Sep 2
First Quarter
Sep 8
Full
Sep 15
Last Quarter

Hourly Weather History & Observations

Time (MDT) Temp. Windchill Dew Point Humidity Pressure Visibility Wind Dir Wind Speed Gust Speed Precip Events Conditions
12:55 AM 48.9 °F - 43.0 °F 80% 30.06 in 10.0 mi NW 4.6 mph - N/A   Mostly Cloudy
1:55 AM 50.0 °F - 42.1 °F 74% 30.04 in 10.0 mi NW 5.8 mph - N/A   Overcast
2:55 AM 48.9 °F - 44.1 °F 83% 30.05 in 10.0 mi Calm Calm - N/A   Overcast
3:55 AM 50.0 °F - 44.1 °F 80% 30.03 in 10.0 mi Calm Calm - N/A   Mostly Cloudy
4:55 AM 46.0 °F 43.9 °F 42.1 °F 86% 30.04 in 10.0 mi NNE 4.6 mph - N/A   Clear
5:55 AM 44.1 °F 41.5 °F 39.9 °F 85% 30.05 in 10.0 mi NNW 4.6 mph - N/A   Clear
6:55 AM 41.0 °F - 39.0 °F 93% 30.06 in 10.0 mi Calm Calm - N/A   Clear
7:55 AM 45.0 °F 42.6 °F 39.9 °F 82% 30.06 in 10.0 mi SE 4.6 mph - N/A   Overcast
8:55 AM 48.9 °F - 42.1 °F 77% 30.04 in 10.0 mi ESE 3.5 mph - N/A   Partly Cloudy
9:55 AM 52.0 °F - 41.0 °F 66% 30.03 in 10.0 mi Calm Calm - N/A   Clear
10:55 AM 55.0 °F - 42.1 °F 62% 30.01 in 10.0 mi ENE 3.5 mph - N/A   Clear
11:55 AM 57.9 °F - 43.0 °F 58% 29.99 in 10.0 mi Variable 3.5 mph - N/A   Clear
12:55 PM 60.1 °F - 42.1 °F 51% 29.96 in 10.0 mi Variable 3.5 mph - N/A   Clear
1:55 PM 63.0 °F - 43.0 °F 48% 29.92 in 10.0 mi Calm Calm - N/A   Mostly Cloudy
2:55 PM 64.9 °F - 43.0 °F 45% 29.91 in 10.0 mi West 4.6 mph - 0.00 in Rain Light Rain
3:55 PM 66.9 °F - 41.0 °F 39% 29.88 in 10.0 mi Variable 4.6 mph - 0.00 in   Scattered Clouds
4:55 PM 64.0 °F - 44.1 °F 48% 29.90 in 10.0 mi SE 9.2 mph - 0.00 in   Partly Cloudy
5:55 PM 64.0 °F - 43.0 °F 46% 29.90 in 10.0 mi North 6.9 mph - N/A   Overcast
6:55 PM 59.0 °F - 44.1 °F 58% 29.96 in 10.0 mi Variable 6.9 mph - N/A   Overcast
7:55 PM 55.0 °F - 48.0 °F 77% 29.97 in 10.0 mi West 4.6 mph - 0.01 in   Overcast
8:55 PM 54.0 °F - 48.0 °F 80% 29.98 in 10.0 mi North 10.4 mph - N/A   Overcast
9:55 PM 52.0 °F - 45.0 °F 77% 30.00 in 10.0 mi NW 12.7 mph - N/A   Clear
10:55 PM 51.1 °F - 44.1 °F 77% 30.00 in 10.0 mi NNW 8.1 mph - N/A   Partly Cloudy
11:55 PM 52.0 °F - 44.1 °F 74% 29.99 in 10.0 mi NNW 10.4 mph - N/A   Mostly Cloudy